カタログに戻る

EKRAN 15

運用中通信GEO
NORAD 16729·PAYLOAD·🇷🇺 Russia

打ち上げ May 24, 1986 から Baikonur Cosmodrome

Loading…

TLE

最新Source: Space-Track

元期: Sep 13, 2026, 17:37 UTC

1 16729U 86038A   26256.73418787 -.00000069  00000-0  00000-0 0  9992
2 16729  11.3131 321.7943 0009200 352.9965  15.3509  0.96545601119219

AllMySatでEKRAN 15をリアルタイム追跡

Download on the App Store